Humidity-temperature Sensor

Selected Measurement Type: Relative Humidity

 
Relative Humidity [%]     6 entries per hour
Showing data from 8/31/2018 (23:50:00 Z) to 8/30/2018 (00:01:00 Z)
Previous Next [ Day | 3-Days | 7-Days ]
First Last
Prev [ Day | 3-Days | 7-Days ] Next
First Last

Start Time:     :
End Time:     :     
Time (in GMT) :00 :50 :40 :30 :20 :10
Previous Next [ Day | 3-Days | 7-Days ]
First Last
Prev [ Day | 3-Days | 7-Days ] Next
First Last


123 => good data
MM => data is determined as missing
-- => data not received/configured
Back to Top Back to Top
9/1/2018 00:00 to 23:10 -- 76.20 76.41 76.41 76.60 77.11
8/31/2018 23:00 to 22:10 77.82 77.91 77.95 77.70 77.76 77.67
8/31/2018 22:00 to 21:10 78.43 78.92 77.84 77.86 79.23 80.31
8/31/2018 21:00 to 20:10 81.13 83.95 84.78 88.99 90.59 87.43
8/31/2018 20:00 to 19:10 90.36 90.29 87.49 88.19 87.35 88.27
8/31/2018 19:00 to 18:10 88.25 86.14 82.96 83.87 84.52 82.31
8/31/2018 18:00 to 17:10 86.42 84.80 82.42 82.27 82.63 82.90
8/31/2018 17:00 to 16:10 78.96 79.06 78.43 80.85 81.82 83.45
8/31/2018 16:00 to 15:10 79.04 76.60 76.20 78.07 78.62 78.81
8/31/2018 15:00 to 14:10 76.92 76.85 76.66 77.99 77.72 79.59
8/31/2018 14:00 to 13:10 80.10 77.95 78.28 78.66 78.56 80.31
8/31/2018 13:00 to 12:10 80.12 81.26 79.67 78.62 77.48 76.66
8/31/2018 12:00 to 11:10 78.05 78.92 78.60 79.02 78.50 79.42
8/31/2018 11:00 to 10:10 78.73 79.09 79.13 79.40 79.36 78.85
8/31/2018 10:00 to 9:10 78.33 78.07 79.15 79.86 79.82 80.20
8/31/2018 09:00 to 8:10 80.20 80.52 79.23 79.28 80.62 80.92
8/31/2018 08:00 to 7:10 80.96 80.06 80.43 79.76 80.88 79.80
8/31/2018 07:00 to 6:10 79.61 79.99 81.15 81.44 80.85 81.55
8/31/2018 06:00 to 5:10 81.28 81.13 80.92 81.34 81.24 81.61
8/31/2018 05:00 to 4:10 80.20 81.15 81.74 81.44 81.53 80.22
8/31/2018 04:00 to 3:10 80.48 81.63 82.67 82.48 82.04 83.01
8/31/2018 03:00 to 2:10 83.85 85.93 86.92 88.84 88.46 89.52
8/31/2018 02:00 to 1:10 89.18 88.02 87.68 87.49 88.40 88.10
8/31/2018 01:00 to 0:10 87.98 87.68 87.60 86.61 88.34 89.12
8/31/2018 00:00 to 23:10 88.76 87.13 85.85 85.26 85.83 85.30
8/30/2018 23:00 to 22:10 82.84 82.10 81.57 81.70 80.35 81.32
8/30/2018 22:00 to 21:10 80.16 80.33 80.86 80.67 79.95 81.61
8/30/2018 21:00 to 20:10 81.80 82.48 81.19 83.05 83.72 82.69
8/30/2018 20:00 to 19:10 82.10 81.85 82.73 82.92 83.28 83.91
8/30/2018 19:00 to 18:10 83.87 83.03 81.70 82.39 81.51 81.76
8/30/2018 18:00 to 17:10 80.69 79.97 80.03 81.45 83.05 83.53
8/30/2018 17:00 to 16:10 84.63 83.62 83.55 83.76 84.96 87.22
8/30/2018 16:00 to 15:10 86.25 83.43 83.76 81.66 80.96 80.39
8/30/2018 15:00 to 14:10 80.90 80.41 82.52 83.38 84.86 83.11
8/30/2018 14:00 to 13:10 82.01 83.17 83.80 82.67 82.23 82.10
8/30/2018 13:00 to 12:10 81.82 80.88 80.73 80.69 80.79 81.82
8/30/2018 12:00 to 11:10 82.18 83.40 83.17 82.77 83.53 84.58
8/30/2018 11:00 to 10:10 86.08 84.63 85.13 86.52 89.20 92.32
8/30/2018 10:00 to 9:10 93.33 93.37 92.45 93.67 94.43 94.02
8/30/2018 09:00 to 8:10 95.63 94.91 92.36 91.96 90.51 87.75
8/30/2018 08:00 to 7:10 87.91 86.78 85.85 87.35 85.37 87.16
8/30/2018 07:00 to 6:10 86.31 85.15 86.82 88.67 87.70 85.62
8/30/2018 06:00 to 5:10 82.88 80.83 80.60 83.15 83.53 84.82
8/30/2018 05:00 to 4:10 84.59 84.31 85.51 85.66 86.71 87.11
8/30/2018 04:00 to 3:10 86.67 86.86 86.75 86.29 85.98 87.20
8/30/2018 03:00 to 2:10 88.25 89.60 85.74 87.28 91.56 88.46
8/30/2018 02:00 to 1:10 87.01 87.58 87.91 87.94 89.07 87.51
8/30/2018 01:00 to 0:10 88.15 85.05 85.83 83.99 84.82 85.30